Flag for Chile Weather past 2 weeks in Viña del Mar, Chile

Now
48 °F

Fog.


Feels Like: 48 °F
Forecast: 53 / 61 °F
Wind: 1 mph from North

Location: Pudahuel

Current Time: Aug 1, 2015 at 11:36:45 AM

Latest Report: Aug 1, 2015 at 11:00 AM


Visibility: 2 mi

Pressure: 30.09 "Hg

Humidity: 94%

Dew point: 46 °F

Location of Viña del MarLocation

Historic Weather in Viña del Mar — Graph

°F

Viña del Mar temperature yesterday

Maximum temperature yesterday: 57 °F (at 5:00 PM)
Minimum temperature yesterday: 39 °F (at 6:00 AM)
Average temperature yesterday: 48 °F

Past Weeks' High & Low Weather Summary

 TemperatureHumidityPressure
High73 °F (Jul 29, 5:00 PM)100% (Jul 18, 7:00 AM)30.33 "Hg (Jul 18, 7:00 AM)
Low28 °F (Jul 21, 8:00 AM)22% (Jul 24, 4:00 PM)29.86 "Hg (Jul 26, 3:00 PM)
Average49 °F72%30.08 "Hg
* Reported Jul 17 10:00 AM — Aug 1 10:00 AM, Viña del Mar, Weather by CustomWeather, © 2015

Note: Actual official high and low records may vary slightly from our data, if they occured in-between our weather recording intervals... More about our weather records

Advertising

Viña del Mar weather history for previous 24 hours

 ConditionsComfort  
Time TempWeatherWind HumidityBarometerVisibility
10:00 AM
Sat, Aug 1
46 °FMostly cloudy.2 mph93%30.07 "Hg2 mi
9:00 AM46 °FFog.1 mph93%30.04 "Hg2 mi
8:00 AM46 °FFog.2 mph93%30.04 "Hg2 mi
7:00 AM48 °FOvercast.No wind87%30.04 "Hg4 mi
6:00 AM46 °FOvercast.5 mph93%30.04 "Hg3 mi
5:00 AM46 °FOvercast.3 mph93%30.04 "Hg4 mi
4:00 AM48 °FOvercast.2 mph87%30.04 "Hg5 mi
3:00 AM48 °FOvercast.3 mph87%30.07 "Hg4 mi
2:00 AM50 °FOvercast.5 mph82%30.07 "Hg4 mi
1:00 AM50 °FOvercast.3 mph82%30.07 "Hg4 mi
12:00 AM52 °FOvercast.2 mph77%30.07 "Hg5 mi
11:00 PM
Fri, Jul 31
50 °FOvercast.3 mph82%30.07 "Hg5 mi
10:00 PM52 °FOvercast.2 mph77%30.09 "Hg5 mi
9:00 PM52 °FOvercast.2 mph82%30.12 "HgN/A
8:00 PM55 °FPassing clouds.3 mph67%30.12 "HgN/A
7:00 PM55 °FOvercast.3 mph72%30.12 "HgN/A
6:00 PM55 °FPartly sunny.5 mph77%30.09 "HgN/A
5:00 PM57 °FPartly sunny.5 mph55%30.09 "HgN/A
4:00 PM55 °FPartly sunny.6 mph67%30.09 "HgN/A
3:00 PM54 °FPartly sunny.3 mph77%30.09 "Hg5 mi
2:00 PM52 °FPartly sunny.2 mph77%30.12 "Hg2 mi
1:00 PM46 °FFog.2 mph93%30.15 "Hg1 mi
12:00 PM45 °FFog.3 mph100%30.21 "Hg1 mi
11:00 AM43 °FFog.6 mph100%30.21 "Hg0 mi
Weather by CustomWeather, © 2015

See weather overviewHow to use our weather pages